Regional Weather Roundup
Issued by NWS Kansas City/Pleasant Hill, MO

Home | Current Version | Previous Version | Text Only | Print | Product List | Glossary On
Versions: 1 2 3 4 5 6 7 8 9 10 11 12 13 14 15 16 17 18 19 20 21 22 23 24 25 26 27 28 29 30 31 32 33 34 35 36 37 38 39 40 41 42 43 44 45 46 47 48 49 50
070
ASUS43 KEAX 101110
RWREAX

WEATHER ROUNDUP FOR EASTERN KANSAS AND NORTHWEST MISSOURI
NATIONAL WEATHER SERVICE KANSAS CITY/PLEASANT HILL MO
500 AM CST WED FEB 10 2016

KSZ040-057-103>105-MOZ028-029-037-043-101200-
...KANSAS CITY METROPOLITAN AREA...

CITY           SKY/WX    TMP DP  RH WIND       PRES   REMARKS
K.C. INTL      CLOUDY    22  14  71 SW7       30.15F WCI  13
K.C. DOWNTOWN  CLOUDY    24  13  62 SW7       30.18F WCI  16
LEES SUMMIT    MOCLDY    21  12  68 SW6       30.17F WCI  13
OLATHE - IXD   CLOUDY    21  14  74 S5        30.18F WCI  15
OLATHE - OJC   CLOUDY    21  14  74 S3        30.17F
LAWRENCE       CLOUDY    22  17  81 CALM      30.19F

$$

MOZ001>008-011>017-020>025-030>033-038>040-044>046-053-054-101200-
...NORTHERN AND CENTRAL MISSOURI...

CITY           SKY/WX    TMP DP  RH WIND       PRES   REMARKS
ST. JOSEPH     CLOUDY    23  15  71 S7        30.15F WCI  15
MOSBY          PTSUNNY   23  18  80 CALM      30.17F
WARRENSBURG    CLOUDY    23  14  68 W5        30.20F WCI  17
WHITEMAN AFB   MOCLDY    17  11  75 SW2       30.17F
CLINTON          N/A     27  14  59 SW5       30.21F WCI  21
SEDALIA        CLEAR     19  10  68 W6        30.20F WCI  11
WARSAW         NOT AVBL
CHILLICOTHE      N/A     18  13  80 CALM      30.17F
KIRKSVILLE     CLEAR     12   6  77 W5        30.15S WCI   4

$$

MOZ041-047>049-056>058-063>065-088>090-097-101200-
...EASTERN AND SOUTHERN MISSOURI...

CITY           SKY/WX    TMP DP  RH WIND       PRES   REMARKS
ST. LOUIS INTL PTCLDY    17   6  62 NW10      30.17R WCI   5
SPIRIT OF STL  CLEAR     14   7  73 W5        30.18R WCI   6
COLUMBIA       CLEAR     15   8  73 W5        30.16F WCI   8
JEFFERSON CITY CLEAR     17   8  67 CALM      30.20F
ROLLA          CLEAR     13   7  77 W5        30.14S WCI   5
OSAGE BEACH    CLEAR     19   7  58 W5        30.20S WCI  13
SPRINGFIELD    CLEAR     19   8  62 NW5       30.20R WCI  12
BRANSON        PTCLDY    23   9  54 W8        30.23R WCI  14
JOPLIN         CLOUDY    21  13  71 SW5       30.25F WCI  15
WEST PLAINS    CLEAR     18   5  57 NW7       30.17R WCI   9

$$

IAZ060-094-KSZ022-034>040-054-083-096-NEZ052-066-093-101200-
...KANSAS...SOUTHEAST NEBRASKA AND IOWA...

CITY           SKY/WX    TMP DP  RH WIND       PRES   REMARKS
TOPEKA         CLOUDY    25  14  63 CALM      30.19F
MANHATTAN      CLOUDY    26  16  65 SW6       30.14F WCI  19
EMPORIA        CLOUDY    26  15  63 S8        30.18F WCI  18
CHANUTE        CLOUDY    23  14  68 SW7       30.24S WCI  15
WICHITA        PTCLDY    25  15  66 S12       30.17F WCI  14
OMAHA          FLURRIES  23  17  78 SE9       30.09F WCI  13
LINCOLN        CLOUDY    27  18  69 S8        30.07F WCI  19
FALLS CITY     CLOUDY    24  17  74 S5        30.13F WCI  18
LAMONI         CLOUDY    19  13  77 SW5       30.11F WCI  12
DES MOINES     CLOUDY    16   6  65 NE5       30.13S WCI   9

$$





USA.gov is the U.S. government's official web portal to all federal, state and local government web resources and services.